Time,TemperatureF,DewpointF,PressureIn,WindDirection,WindDirectionDegrees,WindSpeedMPH,WindSpeedGustMPH,Humidity,HourlyPrecipIn,Conditions,Clouds,dailyrainin,SoftwareType,DateUTC
2013-01-19 00:02:00,32.0,27.0,29.75,SW,232,0.0,0.0,80,0.00,,,0.05,,2013-01-19 06:02:00,
2013-01-19 00:12:00,32.0,27.0,29.75,SW,232,0.0,0.0,80,0.00,,,0.05,,2013-01-19 06:12:00,
2013-01-19 00:22:00,32.0,27.0,29.75,SW,232,0.0,2.0,82,0.00,,,0.05,,2013-01-19 06:22:00,
2013-01-19 00:32:00,32.0,27.0,29.74,SW,232,0.0,2.0,82,0.00,,,0.05,,2013-01-19 06:32:00,
2013-01-19 00:43:00,32.0,27.0,29.74,SW,232,0.0,2.0,82,0.00,,,0.05,,2013-01-19 06:43:00,
2013-01-19 00:52:00,31.0,26.0,29.74,SW,232,0.0,0.0,82,0.00,,,0.05,,2013-01-19 06:52:00,
2013-01-19 01:02:00,31.0,26.0,29.75,SW,232,0.0,0.0,82,0.00,,,0.05,,2013-01-19 07:02:00,
2013-01-19 01:12:00,31.0,26.0,29.75,SW,232,0.0,0.0,82,0.00,,,0.05,,2013-01-19 07:12:00,
2013-01-19 01:22:00,30.0,25.0,29.75,SW,232,0.0,0.0,82,0.00,,,0.05,,2013-01-19 07:22:00,
2013-01-19 01:32:00,30.0,26.0,29.75,SW,232,0.0,0.0,84,0.00,,,0.05,,2013-01-19 07:32:00,
2013-01-19 01:42:00,30.0,26.0,29.75,SW,232,0.0,0.0,84,0.00,,,0.05,,2013-01-19 07:42:00,
2013-01-19 01:52:00,30.0,26.0,29.75,SW,232,0.0,0.0,85,0.00,,,0.05,,2013-01-19 07:52:00,
2013-01-19 02:02:00,30.0,26.0,29.75,SW,232,0.0,0.0,85,0.00,,,0.05,,2013-01-19 08:02:00,
2013-01-19 02:12:00,30.0,26.0,29.75,SW,232,0.0,0.0,85,0.00,,,0.05,,2013-01-19 08:12:00,
2013-01-19 02:22:00,29.0,25.0,29.75,SW,232,0.0,0.0,86,0.00,,,0.05,,2013-01-19 08:22:00,
2013-01-19 02:32:00,29.0,25.0,29.75,SW,232,0.0,0.0,86,0.00,,,0.05,,2013-01-19 08:32:00,
2013-01-19 02:42:00,29.0,25.0,29.75,SW,232,0.0,0.0,86,0.00,,,0.05,,2013-01-19 08:42:00,
2013-01-19 02:52:00,29.0,25.0,29.75,SW,232,0.0,0.0,86,0.00,,,0.05,,2013-01-19 08:52:00,
2013-01-19 03:02:00,29.0,25.0,29.74,SW,232,0.0,0.0,86,0.00,,,0.05,,2013-01-19 09:02:00,
2013-01-19 03:12:00,29.0,25.0,29.74,SW,232,0.0,0.0,86,0.00,,,0.05,,2013-01-19 09:12:00,
2013-01-19 03:22:00,29.0,25.0,29.74,SW,232,0.0,0.0,86,0.00,,,0.05,,2013-01-19 09:22:00,
2013-01-19 03:32:00,29.0,26.0,29.73,SW,232,0.0,0.0,87,0.00,,,0.05,,2013-01-19 09:32:00,
2013-01-19 03:42:00,29.0,26.0,29.73,SW,232,0.0,0.0,87,0.00,,,0.05,,2013-01-19 09:42:00,
2013-01-19 03:52:00,30.0,26.0,29.73,SSW,197,1.0,1.0,86,0.00,,,0.05,,2013-01-19 09:52:00,
2013-01-19 04:02:00,30.0,26.0,29.72,SSW,197,0.0,0.0,86,0.00,,,0.05,,2013-01-19 10:02:00,
2013-01-19 04:12:00,30.0,26.0,29.72,SSW,197,0.0,0.0,86,0.00,,,0.05,,2013-01-19 10:12:00,
2013-01-19 04:22:00,30.0,26.0,29.72,SSW,197,0.0,0.0,86,0.00,,,0.05,,2013-01-19 10:22:00,
2013-01-19 04:32:00,30.0,26.0,29.70,SSW,197,0.0,0.0,85,0.00,,,0.05,,2013-01-19 10:32:00,
2013-01-19 04:42:00,30.0,26.0,29.70,SSW,197,0.0,0.0,85,0.00,,,0.05,,2013-01-19 10:42:00,
2013-01-19 04:52:00,30.0,26.0,29.70,SSW,197,0.0,0.0,85,0.00,,,0.05,,2013-01-19 10:52:00,
2013-01-19 05:03:00,30.0,26.0,29.70,SSW,197,0.0,0.0,86,0.00,,,0.05,,2013-01-19 11:03:00,
2013-01-19 05:12:00,30.0,26.0,29.70,SSW,197,0.0,0.0,86,0.00,,,0.05,,2013-01-19 11:12:00,
2013-01-19 06:48:00,31.0,27.0,29.68,SE,135,0.0,0.0,86,0.00,,,0.05,,2013-01-19 12:48:00,
2013-01-19 06:52:00,31.0,27.0,29.67,ESE,121,1.0,2.0,86,0.00,,,0.05,,2013-01-19 12:52:00,
2013-01-19 07:03:00,31.0,27.0,29.68,West,278,1.0,3.0,85,0.00,,,0.05,,2013-01-19 13:03:00,
2013-01-19 07:12:00,31.0,27.0,29.68,West,278,1.0,3.0,85,0.00,,,0.05,,2013-01-19 13:12:00,
2013-01-19 07:22:00,32.0,28.0,29.68,SSW,209,0.0,0.0,84,0.00,,,0.05,,2013-01-19 13:22:00,
2013-01-19 07:33:00,31.0,27.0,29.67,SSW,209,0.0,0.0,84,0.00,,,0.05,,2013-01-19 13:33:00,
2013-01-19 07:42:00,31.0,27.0,29.67,SSW,209,0.0,0.0,84,0.00,,,0.05,,2013-01-19 13:42:00,
2013-01-19 07:52:00,30.0,26.0,29.65,SSW,195,0.0,1.0,85,0.00,,,0.05,,2013-01-19 13:52:00,
2013-01-19 08:02:00,30.0,26.0,29.65,SSW,196,0.0,0.0,86,0.00,,,0.05,,2013-01-19 14:02:00,
2013-01-19 08:12:00,30.0,26.0,29.65,SSW,196,0.0,0.0,86,0.00,,,0.05,,2013-01-19 14:12:00,
2013-01-19 08:23:00,30.0,26.0,29.64,SSE,161,0.0,0.0,86,0.00,,,0.05,,2013-01-19 14:23:00,
2013-01-19 08:33:00,30.0,26.0,29.63,SSE,157,0.0,0.0,86,0.00,,,0.05,,2013-01-19 14:33:00,
2013-01-19 08:42:00,30.0,26.0,29.63,SSE,157,0.0,0.0,86,0.00,,,0.05,,2013-01-19 14:42:00,
2013-01-19 08:53:00,30.0,27.0,29.63,SSE,149,0.0,2.0,87,0.00,,,0.05,,2013-01-19 14:53:00,
2013-01-19 09:03:00,30.0,27.0,29.64,SSE,149,0.0,0.0,87,0.00,,,0.05,,2013-01-19 15:03:00,
2013-01-19 09:12:00,30.0,27.0,29.64,SSE,149,0.0,0.0,87,0.00,,,0.05,,2013-01-19 15:12:00,
2013-01-19 09:22:00,31.0,27.0,29.65,SSW,202,0.0,2.0,86,0.00,,,0.05,,2013-01-19 15:22:00,
2013-01-19 09:33:00,32.0,28.0,29.65,ESE,123,0.0,1.0,85,0.00,,,0.05,,2013-01-19 15:33:00,
2013-01-19 09:43:00,32.0,28.0,29.65,ESE,123,0.0,1.0,85,0.00,,,0.05,,2013-01-19 15:43:00,
2013-01-19 09:53:00,33.0,28.0,29.65,ESE,111,0.0,1.0,83,0.00,,,0.05,,2013-01-19 15:53:00,
2013-01-19 10:03:00,34.0,29.0,29.64,ESE,111,0.0,0.0,82,0.00,,,0.05,,2013-01-19 16:03:00,
2013-01-19 10:13:00,34.0,29.0,29.64,ESE,111,0.0,0.0,82,0.00,,,0.05,,2013-01-19 16:13:00,
2013-01-19 10:23:00,34.0,29.0,29.65,ESE,111,0.0,1.0,81,0.00,,,0.05,,2013-01-19 16:23:00,
2013-01-19 10:33:00,36.0,30.0,29.64,WSW,239,0.0,3.0,80,0.00,,,0.05,,2013-01-19 16:33:00,
2013-01-19 10:43:00,36.0,30.0,29.64,WSW,239,0.0,3.0,80,0.00,,,0.05,,2013-01-19 16:43:00,
2013-01-19 10:53:00,37.0,31.0,29.64,SW,234,1.0,3.0,78,0.00,,,0.05,,2013-01-19 16:53:00,
2013-01-19 11:02:00,37.0,30.0,29.62,WSW,237,1.0,3.0,76,0.00,,,0.05,,2013-01-19 17:02:00,
2013-01-19 11:27:00,37.0,30.0,29.63,SW,232,1.0,3.0,76,0.00,,,0.05,,2013-01-19 17:27:00,
2013-01-19 11:47:00,38.0,31.0,29.62,SSW,205,2.0,3.0,75,0.00,,,0.05,,2013-01-19 17:47:00,
2013-01-19 11:53:00,38.0,31.0,29.60,SW,232,1.0,7.0,75,0.00,,,0.05,,2013-01-19 17:53:00,
2013-01-19 12:10:00,39.0,31.0,29.60,SW,226,1.0,3.0,72,0.00,,,0.05,,2013-01-19 18:10:00,
2013-01-19 12:25:00,39.0,31.0,29.61,SW,221,1.0,3.0,72,0.00,,,0.05,,2013-01-19 18:25:00,
2013-01-19 12:34:00,40.0,31.0,29.61,WSW,251,3.0,6.0,70,0.01,,,0.06,,2013-01-19 18:34:00,
2013-01-19 12:45:00,40.0,31.0,29.61,WSW,251,3.0,6.0,70,0.01,,,0.06,,2013-01-19 18:45:00,
2013-01-19 12:54:00,40.0,31.0,29.59,West,279,2.0,5.0,70,0.01,,,0.06,,2013-01-19 18:54:00,
2013-01-19 13:06:00,40.0,30.0,29.60,West,261,3.0,7.0,68,0.01,,,0.06,,2013-01-19 19:06:00,
2013-01-19 13:18:00,40.0,30.0,29.60,West,261,3.0,7.0,68,0.01,,,0.06,,2013-01-19 19:18:00,
2013-01-19 13:28:00,39.0,30.0,29.59,SW,217,1.0,3.0,70,0.01,,,0.05,,2013-01-19 19:28:00,
2013-01-19 13:38:00,38.0,29.0,29.60,West,263,1.0,6.0,71,0.00,,,0.05,,2013-01-19 19:38:00,
2013-01-19 13:45:00,38.0,29.0,29.60,West,263,1.0,6.0,71,0.00,,,0.05,,2013-01-19 19:45:00,
2013-01-19 13:54:00,38.0,29.0,29.61,West,261,3.0,7.0,71,0.00,,,0.05,,2013-01-19 19:54:00,
2013-01-19 14:09:00,37.0,28.0,29.61,West,272,3.0,9.0,71,0.00,,,0.04,,2013-01-19 20:09:00,
2013-01-19 14:18:00,37.0,28.0,29.61,West,272,3.0,9.0,71,0.00,,,0.04,,2013-01-19 20:18:00,
2013-01-19 14:24:00,37.0,29.0,29.62,West,259,2.0,6.0,72,0.00,,,0.03,,2013-01-19 20:24:00,
2013-01-19 14:37:00,36.0,28.0,29.63,SW,214,2.0,8.0,73,0.00,,,0.03,,2013-01-19 20:37:00,
2013-01-19 14:54:00,36.0,29.0,29.63,SW,232,1.0,3.0,74,0.00,,,0.03,,2013-01-19 20:54:00,
2013-01-19 15:05:00,36.0,29.0,29.62,WSW,238,1.0,3.0,74,0.00,,,0.03,,2013-01-19 21:05:00,
2013-01-19 15:14:00,36.0,29.0,29.62,WSW,238,1.0,3.0,74,0.00,,,0.03,,2013-01-19 21:14:00,
2013-01-19 15:25:00,36.0,29.0,29.62,WSW,239,1.0,3.0,74,0.00,,,0.03,,2013-01-19 21:25:00,
2013-01-19 15:40:00,36.0,29.0,29.62,WSW,237,1.0,3.0,75,0.00,,,0.02,,2013-01-19 21:40:00,
2013-01-19 15:49:00,36.0,29.0,29.62,WSW,237,1.0,3.0,75,0.00,,,0.02,,2013-01-19 21:49:00,
2013-01-19 15:59:00,36.0,29.0,29.61,West,266,1.0,5.0,75,0.00,,,0.02,,2013-01-19 21:59:00,
2013-01-19 16:16:00,36.0,29.0,29.61,SW,223,3.0,9.0,76,0.00,,,0.01,,2013-01-19 22:16:00,
2013-01-19 16:25:00,36.0,29.0,29.61,West,281,3.0,9.0,75,0.00,,,0.01,,2013-01-19 22:25:00,
2013-01-19 16:34:00,36.0,28.0,29.60,SW,217,3.0,9.0,72,0.00,,,0.01,,2013-01-19 22:34:00,
2013-01-19 16:45:00,36.0,28.0,29.60,SW,217,3.0,9.0,72,0.00,,,0.01,,2013-01-19 22:45:00,
2013-01-19 16:54:00,36.0,21.0,29.62,West,266,4.0,17.0,54,0.00,,,0.01,,2013-01-19 22:54:00,
2013-01-19 17:11:00,33.0,19.0,29.64,SSW,213,5.0,13.0,57,0.00,,,0.01,,2013-01-19 23:11:00,
2013-01-19 17:25:00,29.0,14.0,29.67,SW,215,5.0,16.0,54,0.00,,,0.01,,2013-01-19 23:25:00,
2013-01-19 17:34:00,25.0,9.0,29.71,WSW,254,5.0,17.0,51,0.00,,,0.01,,2013-01-19 23:34:00,
2013-01-19 17:45:00,25.0,9.0,29.71,WSW,254,5.0,17.0,51,0.00,,,0.01,,2013-01-19 23:45:00,
2013-01-19 17:58:00,23.0,8.0,29.73,West,269,5.0,12.0,52,0.00,,,0.01,,2013-01-19 23:58:00,
2013-01-19 18:08:00,20.0,6.0,29.77,West,261,5.0,9.0,55,0.00,,,0.01,,2013-01-20 00:08:00,
2013-01-19 18:15:00,20.0,6.0,29.77,West,261,5.0,9.0,55,0.00,,,0.01,,2013-01-20 00:15:00,
2013-01-19 18:24:00,19.0,6.0,29.79,WSW,245,4.0,9.0,55,0.00,,,0.01,,2013-01-20 00:24:00,
2013-01-19 18:35:00,17.0,4.0,29.80,South,173,5.0,13.0,56,0.00,,,0.01,,2013-01-20 00:35:00,
2013-01-19 18:45:00,17.0,4.0,29.80,South,173,5.0,13.0,56,0.00,,,0.01,,2013-01-20 00:45:00,
2013-01-19 18:53:00,16.0,3.0,29.82,SW,217,3.0,8.0,57,0.00,,,0.01,,2013-01-20 00:53:00,
2013-01-19 19:03:00,15.0,2.0,29.84,West,279,5.0,10.0,55,0.00,,,0.01,,2013-01-20 01:03:00,
2013-01-19 19:18:00,15.0,2.0,29.84,West,279,5.0,10.0,55,0.00,,,0.01,,2013-01-20 01:18:00,
2013-01-19 19:24:00,14.0,2.0,29.86,WSW,257,5.0,14.0,57,0.00,,,0.01,,2013-01-20 01:24:00,
2013-01-19 19:35:00,13.0,1.0,29.88,SW,218,5.0,10.0,59,0.00,,,0.01,,2013-01-20 01:35:00,
2013-01-19 19:45:00,13.0,1.0,29.88,SW,218,5.0,10.0,59,0.00,,,0.01,,2013-01-20 01:45:00,
2013-01-19 20:05:00,12.0,-1.0,29.91,WSW,251,2.0,10.0,55,0.00,,,0.01,,2013-01-20 02:05:00,
2013-01-19 20:14:00,12.0,-1.0,29.91,WSW,251,2.0,10.0,55,0.00,,,0.01,,2013-01-20 02:14:00,
2013-01-19 20:25:00,11.0,-1.0,29.92,West,269,2.0,7.0,58,0.00,,,0.01,,2013-01-20 02:25:00,
2013-01-19 20:35:00,11.0,2.0,29.93,NNE,20,2.0,6.0,65,0.00,,,0.01,,2013-01-20 02:35:00,
2013-01-19 20:44:00,11.0,2.0,29.93,NNE,20,2.0,6.0,65,0.00,,,0.01,,2013-01-20 02:44:00,
2013-01-19 20:55:00,10.0,2.0,29.94,West,268,2.0,5.0,68,0.00,,,0.01,,2013-01-20 02:55:00,
2013-01-19 21:07:00,9.0,2.0,29.96,ENE,62,3.0,9.0,72,0.00,,,0.01,,2013-01-20 03:07:00,
2013-01-19 21:14:00,9.0,2.0,29.96,ENE,62,3.0,9.0,72,0.00,,,0.01,,2013-01-20 03:14:00,
2013-01-19 21:24:00,9.0,1.0,29.96,West,260,2.0,7.0,70,0.00,,,0.01,,2013-01-20 03:24:00,
2013-01-19 21:37:00,8.0,-3.0,29.98,SW,232,3.0,8.0,61,0.00,,,0.01,,2013-01-20 03:37:00,
2013-01-19 21:45:00,8.0,-3.0,29.98,SW,232,3.0,8.0,61,0.00,,,0.01,,2013-01-20 03:45:00,
2013-01-19 21:53:00,8.0,-3.0,29.99,North,10,2.0,7.0,60,0.00,,,0.01,,2013-01-20 03:53:00,
2013-01-19 22:04:00,7.0,-4.0,30.01,SW,236,3.0,8.0,59,0.00,,,0.01,,2013-01-20 04:04:00,
2013-01-19 22:14:00,7.0,-4.0,30.01,SW,236,3.0,8.0,59,0.00,,,0.01,,2013-01-20 04:14:00,
2013-01-19 22:24:00,7.0,-3.0,30.02,WSW,257,2.0,8.0,62,0.00,,,0.01,,2013-01-20 04:24:00,
2013-01-19 22:34:00,7.0,-4.0,30.03,SW,226,1.0,6.0,61,0.00,,,0.01,,2013-01-20 04:34:00,
2013-01-19 22:44:00,7.0,-4.0,30.03,SW,226,1.0,6.0,61,0.00,,,0.01,,2013-01-20 04:44:00,
2013-01-19 22:54:00,7.0,-3.0,30.04,NNE,15,1.0,5.0,63,0.00,,,0.01,,2013-01-20 04:54:00,
2013-01-19 23:03:00,6.0,-4.0,30.05,SW,219,2.0,7.0,63,0.00,,,0.01,,2013-01-20 05:03:00,
2013-01-19 23:12:00,6.0,-4.0,30.05,SW,219,2.0,7.0,63,0.00,,,0.01,,2013-01-20 05:12:00,
2013-01-19 23:22:00,6.0,-4.0,30.06,West,260,2.0,3.0,64,0.00,,,0.01,,2013-01-20 05:22:00,
2013-01-19 23:32:00,6.0,-3.0,30.07,WSW,242,2.0,5.0,65,0.00,,,0.01,,2013-01-20 05:32:00,
2013-01-19 23:42:00,6.0,-3.0,30.07,WSW,242,2.0,5.0,65,0.00,,,0.01,,2013-01-20 05:42:00,
2013-01-19 23:53:00,6.0,-3.0,30.07,WSW,256,1.0,5.0,65,0.00,,,0.01,,2013-01-20 05:53:00,